Torna al catalogo

IRIDIUM 33 DEB

AttivoPO
NORAD 33953·DEBRIS·🇺🇸 United States

Lanciato Sep 14, 1997 da Baikonur Cosmodrome

Loading…

Prossimi Passaggi (prossime 24 ore)

TLE

AggiornatoSource: Space-Track

Epoca: Sep 14, 2026, 02:17 UTC

1 33953U 97051BN  26257.09556339  .00002016  00000-0  43814-3 0  9999
2 33953  86.3818 294.0501 0013970 248.1667 140.5900 14.57544044923128

Traccia IRIDIUM 33 DEB in tempo reale con AllMySat

Download on the App Store